Погода в Кронштадтке

Россия / Приморский край     44°43′22″N   133°05′57″E
В апреле 2022 года жителям России запретили посещать сайт meteo.paraplan.net по решению Генеральной прокуратуры. Аудитория сайта уменьшилась в 10 раз. Владельцы сайта не видят смысла в поддержке погодного сервера в таких условиях. Сайт будет закрыт в октябре.
темп.,
°C
ветер,
м/с
пор.,
м/с
влажн.,
%
обл.,
%
осадки,
мм/ч
давл.,
гПа
погр.,
м
25 сентября, вс
вс2501:00+9ююз48950 0.0 1014189
04:00+9ююз38930 0.0 1015169
07:00+8ююз24912 0.0 101667
10:00+15юз356990 0.0 1016349
13:00+19ююз3552100 0.0 1015816
16:00+19ююз3654100 0.0 1014972
19:00+15ю2476100 0.0 101451
22:00+13ю2475100 0.0 101465
26 сентября, пн
пн2601:00+12ю348922 0.0 101474
04:00+12ю38950 0.0 1014188
07:00+11ю24961 0.0 101587
10:00+17юз59780 0.0 1015535
13:00+21зюз45560 0.0 10151081
16:00+21з34540 0.0 10141052
19:00+16всв11770 0.0 101511
22:00+14вюв00860 0.0 101610
27 сентября, вт
вт2701:00+12всв12865 0.0 101711
04:00+11вюв11750 0.0 101711
07:00+10ююв22810 0.0 101811
10:00+17ююз24695 0.0 1018366
13:00+22юз45515 0.0 1016860
16:00+23юз46500 0.0 1014962
19:00+17ююз33740 0.0 101436
22:00+15ю37710 0.0 1014106
28 сентября, ср
ср2801:00+13ююв34670 0.0 101350
04:00+12ююв34700 0.0 101355
07:00+12ююв34712 0.0 101260
10:00+19ю412525 0.0 1011547
13:00+23ююз611445 0.0 1009788
16:00+23юз610526 0.0 1008837
19:00+17ююз38713 0.0 1009138
22:00+15ююз39690 0.0 1010173
29 сентября, чт
чт2901:00+14ююз24730 0.0 101178
04:00+13ю12800 0.0 101223
07:00+12ююв11860 0.0 101212
10:00+18ююз23690 0.0 1013336
13:00+23зюз23550 0.0 1012766
16:00+25юз24500 0.0 10101041
19:00+19ю33735 0.0 101045
22:00+17ю347011 0.0 101059